Regional Weather Roundup
Issued by NWS

Home | Current Version | Previous Version | Graphics & Text | Print | Product List | Glossary On
Versions: 1 2 3 4 5 6 7 8 9 10 11 12 13 14 15 16 17 18 19 20 21 22 23 24 25 26 27 28 29 30 31 32 33 34 35 36 37 38 39 40 41 42 43 44 45 46 47 48 49 50
000
ASUS43 KBIS 291810
RWRND

NORTH DAKOTA REGIONAL WEATHER ROUNDUP
NATIONAL WEATHER SERVICE BISMARCK ND
100 PM CDT WED MAR 29 2017

NOTE: "FAIR" INDICATES FEW OR NO CLOUDS BELOW 12,000 FEET WITH NO
SIGNIFICANT WEATHER AND/OR OBSTRUCTIONS TO VISIBILITY.


NDZ001>003-009>011-017-291900-
NORTHWEST NORTH DAKOTA

CITY           SKY/WX    TMP DP  RH WIND       PRES   REMARKS
WILLISTON      FAIR      55  42  61 SW9       29.97F
6HR MIN TEMP:  32; 6HR MAX TEMP:  55;

MINOT          FAIR      55  43  63 S10       29.99F
MINOT AFB      CLOUDY    55  45  70 S13       29.98F
$$

NDZ018>021-031>035-040>046-291900-
SOUTHWEST NORTH DAKOTA

CITY           SKY/WX    TMP DP  RH WIND       PRES   REMARKS
BISMARCK       FAIR      60  40  47 S10       30.07F
6HR MIN TEMP:  33; 6HR MAX TEMP:  61;

DICKINSON      FAIR      53  42  66 S13       30.01F
GARRISON         N/A     53  42  66 SW14      30.01F
6HR MIN TEMP:  34; 6HR MAX TEMP:  54;

HETTINGER ARPT MOSUNNY   55  41  59 SW8       30.05F
$$

NDZ004>008-012>016-024-026-027-054-291900-
NORTHEAST NORTH DAKOTA

CITY           SKY/WX    TMP DP  RH WIND       PRES   REMARKS
GRAND FORKS    MOSUNNY   54  44  69 S10       30.12F
GRND FRKS AFB  SUNNY     57  46  65 S8        30.11F
DEVILS LAKE    PTSUNNY   54  40  59 SW12      30.08F
$$

NDZ022-023-025-028>030-036>039-047>053-291900-
SOUTHEAST NORTH DAKOTA

CITY           SKY/WX    TMP DP  RH WIND       PRES   REMARKS
FARGO          CLOUDY    57  38  48 S10       30.14F
6HR MIN TEMP:  37; 6HR MAX TEMP:  57;

JAMESTOWN      FAIR      59  36  42 S14       30.08F
$$





USA.gov is the U.S. government's official web portal to all federal, state and local government web resources and services.